Terug naar catalogus

NOAA 16 DEB

ActiefSSO
NORAD 41423·DEBRIS·🇺🇸 United States

Gelanceerd Sep 21, 2000 vanaf Vandenberg Space Force Base

Loading…

Volgende Passages (komende 24 uur)

TLE

VersSource: Space-Track

Epoch: Sep 13, 2026, 11:28 UTC

1 41423U 00055LC  26256.47827397  .00002881  00000-0  99695-3 0  9992
2 41423  98.6684 347.1488 0009741 268.0464  91.9606 14.36463137550158

Volg NOAA 16 DEB in realtime met AllMySat

Download on the App Store